Preview of NWS' New Version of Forecast
This preview is not operational and should not be used for support decisions.

Regional Weather Roundup (RWR)

Issued by National Weather Service (NWS)

                            
000
ASUS44 KJAN 202210
RWRMS 

MISSISSIPPI HOURLY WEATHER ROUNDUP
NATIONAL WEATHER SERVICE JACKSON MS
500 PM CDT FRI SEP 20 2019

NOTE: "FAIR: INDICATES FEW OR NO CLOUDS BELOW 12,000 FEET WITH NO
SIGNIFICANT WEATHER AND/OR OBSTRUCTIONS TO VISIBILITY.

MSZ001>002-007>008-010>013-018>021-025>028-034>036-202300-
NORTHWEST MISSISSIPPI
  
CITY           SKY/WX    TMP DP  RH WIND       PRES   REMARKS
BATESVILLE     FAIR      88  64  45 VRB8      30.11S                  
CLARKSDALE       N/A     88  66  48 SE10      30.10S HX  90           
CLEVELAND      FAIR      85  65  51 SE9       30.08F                  
GREENWOOD      LGT RAIN  89  63  41 SE9       30.10F HX  90           
GREENVILLE     FAIR      88  64  44 SE8       30.06F                  
OLIVE BRANCH   PTSUNNY   86  63  45 S13       30.12S                  
OXFORD         FAIR      84  61  45 SE8       30.14S                  
TUNICA           N/A     84  64  51 SE9       30.12S                  
WINONA         FAIR      84  64  51 E5        30.12S                  
$$

MSZ003>006-009-014>017-022>024-029>033-037>039-202300-
NORTHEAST MISSISSIPPI
  
CITY           SKY/WX    TMP DP  RH WIND       PRES   REMARKS
ABERDEEN       FAIR      84  68  58 S7        30.15F                  
COLUMBUS AFB   FAIR      85  62  44 SE7       30.14S                  
CORINTH        FAIR      86  61  42 SE6G13    30.14S HAZE             
GOLDN TRIANGLE FAIR      86  63  45 E9        30.15S                  
STARKVILLE     FAIR      86  59  39 E6        30.15S                  
TUPELO         FAIR      87  61  41 S8        30.14S                  
$$

MSZ040-058-202300-
CENTRAL MISSISSIPPI
  
CITY           SKY/WX    TMP DP  RH WIND       PRES   REMARKS
JACKSON INTL   PTSUNNY   88  63  43 SE10      30.10F                  
JACKSON HAWKNS FAIR      88  62  41 SE9       30.10F                  
MADISON        FAIR      84  63  48 SE5       30.12S                  
MERIDIAN KEY   FAIR      89  56  32 E10       30.12F                  
MERIDIAN NAS   PTSUNNY   88  53  30 E10       30.13F                  
RAYMOND          N/A     88  66  48 E12       30.09S HX  90           
VICKSBURG VKS  CLEAR     91  64  40 E9        30.06F HX  93           
$$

MSZ059>079-202300-
SOUTH MISSISSIPPI
  
CITY           SKY/WX    TMP DP  RH WIND       PRES   REMARKS
BROOKHAVEN     FAIR      88  66  48 N3G13     30.10F HX  90           
HATTIESBURG    FAIR      87  59  38 SE10      30.11F                  
LAUREL         CLEAR     87  58  36 E14       30.11F                  
MCCOMB         FAIR      88  65  46 SE9       30.08S HX  90           
NATCHEZ        PTSUNNY   87  68  52 SE9       30.06F HX  90           
PINE BELT      FAIR      86  62  44 VRB6      30.12F                  
$$

MSZ080>082-202300-
COASTAL MISSISSIPPI
  
CITY           SKY/WX    TMP DP  RH WIND       PRES   REMARKS
BAY ST LOUIS   MOSUNNY   84  70  61 E12G21    30.10F                  
BILOXI           N/A    N/A N/A N/A SE15        N/A                   
PASCAGOULA     FAIR      86  67  52 SE12      30.11F                  
GULFPORT       FAIR      85  67  54 E18       30.10S                  
$$

LAZ007>009-015>016-023>026-202300-
NORTHEAST LOUISIANA
  
CITY           SKY/WX    TMP DP  RH WIND       PRES   REMARKS
BASTROP        LGT RAIN  80  74  84 CALM      30.06S                  
TALLULAH/VBURG FAIR      93  65  39 E15       30.05F HX  95           
VIDALIA        FAIR      86  71  60 S6        30.05S HX  91           
$$